Time,TemperatureF,DewpointF,PressureIn,WindDirection,WindDirectionDegrees,WindSpeedMPH,WindSpeedGustMPH,Humidity,HourlyPrecipIn,Conditions,Clouds,dailyrainin,SoftwareType,DateUTC
2013-07-05 00:05:00,69.3,69.0,30.08,NW,315,1.0,3.0,98,0.01,,,1.26,weatherlink.com 1.10,2013-07-05 04:05:00,
2013-07-05 00:20:00,68.5,68.0,30.08,NNW,327,0.0,7.0,97,0.01,,,1.26,weatherlink.com 1.10,2013-07-05 04:20:00,
2013-07-05 00:35:00,68.1,67.0,30.09,WNW,294,7.0,9.0,97,0.01,,,1.26,weatherlink.com 1.10,2013-07-05 04:35:00,
2013-07-05 00:50:00,68.0,67.0,30.10,NW,309,3.0,9.0,97,0.02,,,0.01,weatherlink.com 1.10,2013-07-05 04:50:00,
2013-07-05 01:05:00,67.9,67.0,30.09,WNW,302,0.0,3.0,97,0.01,,,0.01,weatherlink.com 1.10,2013-07-05 05:05:00,
2013-07-05 01:20:00,67.7,67.0,30.09,NW,304,0.0,3.0,97,0.01,,,0.01,weatherlink.com 1.10,2013-07-05 05:20:00,
2013-07-05 01:35:00,67.5,67.0,30.09,South,184,0.0,2.0,97,0.01,,,0.01,weatherlink.com 1.10,2013-07-05 05:35:00,
2013-07-05 01:50:00,67.4,67.0,30.09,South,171,0.0,2.0,97,0.00,,,0.01,weatherlink.com 1.10,2013-07-05 05:50:00,
2013-07-05 02:05:00,67.3,67.0,30.09,WSW,237,0.0,1.0,97,0.00,,,0.01,weatherlink.com 1.10,2013-07-05 06:05:00,
2013-07-05 02:20:00,67.2,66.0,30.09,WNW,289,0.0,1.0,97,0.00,,,0.01,weatherlink.com 1.10,2013-07-05 06:20:00,
2013-07-05 02:35:00,67.2,66.0,30.09,West,269,0.0,2.0,97,0.00,,,0.01,weatherlink.com 1.10,2013-07-05 06:35:00,
2013-07-05 02:50:00,67.1,66.0,30.08,West,269,0.0,0.0,97,0.00,,,0.01,weatherlink.com 1.10,2013-07-05 06:50:00,
2013-07-05 03:05:00,67.1,66.0,30.08,SW,227,0.0,1.0,97,0.00,,,0.01,weatherlink.com 1.10,2013-07-05 07:05:00,
2013-07-05 03:20:00,67.1,67.0,30.08,SW,227,0.0,0.0,98,0.01,,,0.02,weatherlink.com 1.10,2013-07-05 07:20:00,
2013-07-05 03:35:00,67.1,66.0,30.08,SW,227,0.0,0.0,97,0.01,,,0.02,weatherlink.com 1.10,2013-07-05 07:35:00,
2013-07-05 03:50:00,66.9,66.0,30.08,SW,234,0.0,2.0,97,0.01,,,0.02,weatherlink.com 1.10,2013-07-05 07:50:00,
2013-07-05 04:05:00,66.9,66.0,30.08,SW,234,0.0,0.0,97,0.02,,,0.03,weatherlink.com 1.10,2013-07-05 08:05:00,
2013-07-05 04:20:00,66.9,66.0,30.07,SSW,195,0.0,1.0,98,0.02,,,0.04,weatherlink.com 1.10,2013-07-05 08:20:00,
2013-07-05 04:35:00,66.7,66.0,30.07,South,184,0.0,2.0,98,0.02,,,0.04,weatherlink.com 1.10,2013-07-05 08:35:00,
2013-07-05 04:50:00,66.6,66.0,30.07,South,184,0.0,1.0,98,0.03,,,0.05,weatherlink.com 1.10,2013-07-05 08:50:00,
2013-07-05 05:05:00,66.6,66.0,30.07,South,184,0.0,0.0,98,0.03,,,0.06,weatherlink.com 1.10,2013-07-05 09:05:00,
2013-07-05 05:20:00,66.7,66.0,30.07,South,184,0.0,0.0,98,0.02,,,0.06,weatherlink.com 1.10,2013-07-05 09:20:00,
2013-07-05 05:35:00,66.7,66.0,30.08,South,184,0.0,0.0,98,0.02,,,0.06,weatherlink.com 1.10,2013-07-05 09:35:00,
2013-07-05 05:50:00,66.5,66.0,30.08,South,184,0.0,1.0,98,0.01,,,0.06,weatherlink.com 1.10,2013-07-05 09:50:00,
2013-07-05 06:05:00,66.5,66.0,30.08,South,184,0.0,1.0,98,0.00,,,0.06,weatherlink.com 1.10,2013-07-05 10:05:00,
2013-07-05 06:20:00,66.5,66.0,30.08,South,173,1.0,2.0,98,0.02,,,0.08,weatherlink.com 1.10,2013-07-05 10:20:00,
2013-07-05 06:51:00,66.5,66.0,30.08,South,173,0.0,1.0,98,0.06,,,0.12,weatherlink.com 1.10,2013-07-05 10:51:00,
2013-07-05 07:21:00,66.7,66.0,30.09,South,171,0.0,3.0,98,0.05,,,0.13,weatherlink.com 1.10,2013-07-05 11:21:00,
2013-07-05 07:36:00,66.6,66.0,30.09,South,185,0.0,1.0,98,0.03,,,0.13,weatherlink.com 1.10,2013-07-05 11:36:00,
2013-07-05 07:51:00,66.7,66.0,30.10,South,185,0.0,1.0,98,0.01,,,0.14,weatherlink.com 1.10,2013-07-05 11:51:00,
2013-07-05 08:06:00,66.7,66.0,30.10,South,172,0.0,3.0,98,0.01,,,0.14,weatherlink.com 1.10,2013-07-05 12:06:00,
2013-07-05 08:21:00,66.9,66.0,30.10,South,171,0.0,1.0,98,0.01,,,0.14,weatherlink.com 1.10,2013-07-05 12:21:00,
2013-07-05 08:36:00,67.2,67.0,30.11,South,186,2.0,2.0,98,0.01,,,0.14,weatherlink.com 1.10,2013-07-05 12:36:00,
2013-07-05 08:51:00,67.4,67.0,30.11,South,186,0.0,1.0,98,0.00,,,0.14,weatherlink.com 1.10,2013-07-05 12:51:00,
2013-07-05 09:06:00,67.4,67.0,30.12,South,182,1.0,3.0,98,0.00,,,0.14,weatherlink.com 1.10,2013-07-05 13:06:00,
2013-07-05 09:21:00,67.7,67.0,30.12,South,182,0.0,2.0,98,0.00,,,0.14,weatherlink.com 1.10,2013-07-05 13:21:00,
2013-07-05 09:36:00,67.9,67.0,30.12,South,183,0.0,3.0,98,0.00,,,0.14,weatherlink.com 1.10,2013-07-05 13:36:00,
2013-07-05 09:51:00,68.1,68.0,30.13,South,188,1.0,2.0,98,0.00,,,0.14,weatherlink.com 1.10,2013-07-05 13:51:00,
2013-07-05 10:06:00,68.1,67.0,30.13,South,191,0.0,3.0,97,0.00,,,0.14,weatherlink.com 1.10,2013-07-05 14:06:00,
2013-07-05 10:21:00,68.6,68.0,30.12,South,173,2.0,2.0,98,0.00,,,0.14,weatherlink.com 1.10,2013-07-05 14:21:00,
2013-07-05 10:36:00,68.8,68.0,30.13,South,186,1.0,3.0,97,0.00,,,0.14,weatherlink.com 1.10,2013-07-05 14:36:00,
2013-07-05 10:51:00,69.1,68.0,30.12,South,177,2.0,3.0,97,0.00,,,0.14,weatherlink.com 1.10,2013-07-05 14:51:00,
2013-07-05 11:06:00,69.5,68.0,30.13,South,187,1.0,3.0,96,0.00,,,0.14,weatherlink.com 1.10,2013-07-05 15:06:00,
2013-07-05 11:36:00,70.4,69.0,30.13,South,182,1.0,4.0,94,0.00,,,0.14,weatherlink.com 1.10,2013-07-05 15:36:00,
2013-07-05 11:51:00,71.0,69.0,30.12,South,178,0.0,2.0,94,0.00,,,0.14,weatherlink.com 1.10,2013-07-05 15:51:00,
2013-07-05 12:06:00,71.0,69.0,30.12,South,179,1.0,4.0,94,0.00,,,0.14,weatherlink.com 1.10,2013-07-05 16:06:00,
2013-07-05 12:21:00,71.3,69.0,30.12,SSE,167,0.0,3.0,93,0.00,,,0.14,weatherlink.com 1.10,2013-07-05 16:21:00,
2013-07-05 12:36:00,71.9,70.0,30.12,South,176,2.0,4.0,92,0.00,,,0.14,weatherlink.com 1.10,2013-07-05 16:36:00,
2013-07-05 12:51:00,72.2,69.0,30.12,SSW,194,1.0,4.0,90,0.00,,,0.14,weatherlink.com 1.10,2013-07-05 16:51:00,
2013-07-05 13:06:00,72.2,69.0,30.12,WNW,294,0.0,3.0,90,0.00,,,0.14,weatherlink.com 1.10,2013-07-05 17:06:00,
2013-07-05 13:21:00,72.2,69.0,30.13,South,180,2.0,3.0,89,0.00,,,0.14,weatherlink.com 1.10,2013-07-05 17:21:00,
2013-07-05 13:36:00,71.5,69.0,30.11,South,179,0.0,1.0,92,0.00,,,0.14,weatherlink.com 1.10,2013-07-05 17:36:00,
2013-07-05 13:51:00,71.6,70.0,30.11,South,179,0.0,1.0,93,0.00,,,0.14,weatherlink.com 1.10,2013-07-05 17:51:00,
2013-07-05 14:06:00,71.8,70.0,30.12,South,179,0.0,0.0,93,0.01,,,0.15,weatherlink.com 1.10,2013-07-05 18:06:00,
2013-07-05 14:21:00,72.1,70.0,30.11,South,180,0.0,3.0,93,0.01,,,0.15,weatherlink.com 1.10,2013-07-05 18:21:00,
2013-07-05 14:36:00,73.1,71.0,30.11,SSE,168,2.0,4.0,93,0.01,,,0.15,weatherlink.com 1.10,2013-07-05 18:36:00,
2013-07-05 14:51:00,72.9,71.0,30.11,South,175,0.0,3.0,92,0.01,,,0.15,weatherlink.com 1.10,2013-07-05 18:51:00,
2013-07-05 15:06:00,74.2,72.0,30.10,South,176,0.0,2.0,93,0.00,,,0.15,weatherlink.com 1.10,2013-07-05 19:06:00,
2013-07-05 15:21:00,74.4,71.0,30.10,South,190,0.0,2.0,89,0.00,,,0.15,weatherlink.com 1.10,2013-07-05 19:21:00,
2013-07-05 15:36:00,74.5,71.0,30.09,South,176,1.0,4.0,87,0.00,,,0.15,weatherlink.com 1.10,2013-07-05 19:36:00,
2013-07-05 15:51:00,74.7,71.0,30.09,South,187,1.0,3.0,87,0.00,,,0.15,weatherlink.com 1.10,2013-07-05 19:51:00,
2013-07-05 16:06:00,75.5,71.0,30.08,South,174,1.0,3.0,86,0.00,,,0.15,weatherlink.com 1.10,2013-07-05 20:06:00,
2013-07-05 16:21:00,76.5,72.0,30.08,SW,220,0.0,4.0,85,0.00,,,0.15,weatherlink.com 1.10,2013-07-05 20:21:00,
2013-07-05 16:36:00,76.8,71.0,30.08,West,269,0.0,2.0,83,0.00,,,0.15,weatherlink.com 1.10,2013-07-05 20:36:00,
2013-07-05 16:52:00,76.3,71.0,30.09,South,189,0.0,4.0,84,0.00,,,0.15,weatherlink.com 1.10,2013-07-05 20:52:00,
2013-07-05 17:07:00,76.4,72.0,30.08,SSW,199,2.0,3.0,85,0.00,,,0.15,weatherlink.com 1.10,2013-07-05 21:07:00,
2013-07-05 17:22:00,76.0,71.0,30.08,South,170,0.0,3.0,85,0.00,,,0.15,weatherlink.com 1.10,2013-07-05 21:22:00,
2013-07-05 17:37:00,75.8,71.0,30.07,South,169,1.0,3.0,84,0.00,,,0.15,weatherlink.com 1.10,2013-07-05 21:37:00,
2013-07-05 17:52:00,76.1,72.0,30.07,South,176,0.0,4.0,86,0.00,,,0.15,weatherlink.com 1.10,2013-07-05 21:52:00,
2013-07-05 18:07:00,75.9,72.0,30.07,South,180,1.0,3.0,86,0.00,,,0.15,weatherlink.com 1.10,2013-07-05 22:07:00,
2013-07-05 18:22:00,76.2,72.0,30.06,South,178,1.0,3.0,86,0.00,,,0.15,weatherlink.com 1.10,2013-07-05 22:22:00,
2013-07-05 18:37:00,76.3,72.0,30.06,South,186,1.0,4.0,85,0.00,,,0.15,weatherlink.com 1.10,2013-07-05 22:37:00,
2013-07-05 18:52:00,76.0,72.0,30.07,South,188,1.0,3.0,86,0.00,,,0.15,weatherlink.com 1.10,2013-07-05 22:52:00,
2013-07-05 19:07:00,75.9,72.0,30.07,South,178,0.0,3.0,86,0.00,,,0.15,weatherlink.com 1.10,2013-07-05 23:07:00,
2013-07-05 19:22:00,75.6,72.0,30.07,South,169,1.0,4.0,87,0.00,,,0.15,weatherlink.com 1.10,2013-07-05 23:22:00,
2013-07-05 19:37:00,75.2,72.0,30.07,South,176,2.0,3.0,88,0.00,,,0.15,weatherlink.com 1.10,2013-07-05 23:37:00,
2013-07-05 19:52:00,75.1,71.0,30.07,South,187,0.0,3.0,88,0.00,,,0.15,weatherlink.com 1.10,2013-07-05 23:52:00,
2013-07-05 20:07:00,74.9,71.0,30.07,SSW,194,1.0,2.0,88,0.00,,,0.15,weatherlink.com 1.10,2013-07-06 00:07:00,
2013-07-05 20:22:00,74.8,71.0,30.07,South,178,0.0,3.0,89,0.00,,,0.15,weatherlink.com 1.10,2013-07-06 00:22:00,
2013-07-05 20:37:00,74.4,71.0,30.07,South,171,0.0,2.0,89,0.00,,,0.15,weatherlink.com 1.10,2013-07-06 00:37:00,
2013-07-05 20:52:00,74.3,71.0,30.07,South,176,0.0,1.0,90,0.00,,,0.15,weatherlink.com 1.10,2013-07-06 00:52:00,
2013-07-05 21:07:00,74.0,71.0,30.07,South,178,1.0,2.0,91,0.00,,,0.15,weatherlink.com 1.10,2013-07-06 01:07:00,
2013-07-05 21:22:00,74.0,71.0,30.08,SSW,198,0.0,1.0,91,0.00,,,0.15,weatherlink.com 1.10,2013-07-06 01:22:00,
2013-07-05 21:37:00,73.9,71.0,30.08,SSW,198,0.0,1.0,91,0.00,,,0.15,weatherlink.com 1.10,2013-07-06 01:37:00,
2013-07-05 21:52:00,73.7,71.0,30.09,WSW,255,0.0,0.0,92,0.00,,,0.15,weatherlink.com 1.10,2013-07-06 01:52:00,
2013-07-05 22:07:00,73.6,71.0,30.09,South,178,1.0,3.0,92,0.00,,,0.15,weatherlink.com 1.10,2013-07-06 02:07:00,
2013-07-05 22:22:00,73.4,71.0,30.09,SSE,167,2.0,3.0,92,0.00,,,0.15,weatherlink.com 1.10,2013-07-06 02:22:00,
2013-07-05 22:37:00,73.3,71.0,30.10,SSE,162,3.0,5.0,93,0.00,,,0.15,weatherlink.com 1.10,2013-07-06 02:37:00,
2013-07-05 22:52:00,73.1,71.0,30.10,South,184,2.0,3.0,93,0.00,,,0.15,weatherlink.com 1.10,2013-07-06 02:52:00,
2013-07-05 23:07:00,73.0,71.0,30.10,South,187,0.0,2.0,94,0.00,,,0.15,weatherlink.com 1.10,2013-07-06 03:07:00,
2013-07-05 23:22:00,72.8,71.0,30.10,NNW,331,0.0,2.0,94,0.00,,,0.15,weatherlink.com 1.10,2013-07-06 03:22:00,
2013-07-05 23:37:00,72.8,71.0,30.10,SW,232,0.0,1.0,94,0.00,,,0.15,weatherlink.com 1.10,2013-07-06 03:37:00,
2013-07-05 23:52:00,72.7,71.0,30.09,NW,313,0.0,2.0,94,0.00,,,0.15,weatherlink.com 1.10,2013-07-06 03:52:00,